Weather in Staroye Zakharkino

Russia / Penza Oblast     52°53′57″N   45°14′04″E
temp.,
°C
wind,
m/s
gust,
m/s
humid.,
%
clouds,
%
prec.,
mm/h
press.,
hPa
HPBL,
m
28 september, tue
tue2800:00+5nne5893100 0.3 1017667
03:00+6nne4992100 0.6 1019551
06:00+5ne5790100 0.1 1021853
09:00+5ne6881100 0.2 1023797
12:00+6ene6771100 0.1 10251042
15:00+8ne575446 0.1 10251394
18:00+5nne3565100 0.0 102770
21:00+3nne36755 0.0 1029105
29 september, wed
wed2900:00+2n2380100 0.0 102956
03:00+1n35838 0.0 103094
06:000n34895 0.0 103185
09:00+6ne4662100 0.0 1031566
12:00+9ne45465 0.0 10311420
15:00+10nne45435 0.0 10301621
18:00+5n35635 0.0 103170
21:00+3nne22725 0.0 103217
30 september, thu
thu3000:00+2nne11765 0.0 103211
03:00+2n22795 0.0 103310
06:00+1n22835 0.0 103412
09:00+6nne23605 0.0 1034370
12:00+10nne234815 0.0 10331338
15:00+11n234697 0.0 10321672
18:00+8nnw245860 0.0 103372
21:00+5nnw227212 0.0 103411
1 october, fri
fri100:00+7wnw236946 0.0 103474
03:00+6wnw2579100 0.0 1034132
06:00+6wnw368297 0.0 1034182
09:00+10nw457399 0.0 1034466
12:00+9nw3579100 0.0 1034388
15:00+13nw456798 0.1 10321046
18:00+10nw3682100 0.1 1033153
21:00+10nw2383100 0.1 103383
2 october, sat
sat200:00+10wnw2381100 0.0 103348
03:00+10wnw3479100 0.0 103394
06:00+10nw2482100 0.0 103393
09:00+11nw2478100 0.0 1034177
12:00+13nnw3369100 0.0 1034499
15:00+14nnw2367100 0.0 1033526
18:00+12nnw2278100 0.0 103434
21:00+11n1178100 0.0 103410